Weather observations for the past three days for
Pagosa Springs, Wolf Creek Pass
| Date | Time (mdt) | Wind (kph) | Vis. (km) | Weather | Sky Cond. | Temperature (ºC) | Relative Humidity | Wind Chill (°C) | Heat Index (°C) | Pressure | Precipitation (cm) | ||||||
|---|---|---|---|---|---|---|---|---|---|---|---|---|---|---|---|---|---|
| Air | Dwpt | 6 hour | altimeter (cm) | sea level (mb) | 1 hr | 3 hr | 6 hr | ||||||||||
| Max. | Min. | ||||||||||||||||
| 05 | 18:35 | SW 35 G 57 | 4.83 | Overcast and Breezy | SCT017 BKN024 OVC034 | -1 | -5 | 75% | -8 | 76.2 | 0.0 | ||||||
| 05 | 18:15 | SW 31 G 61 | 8.05 | Thunderstorm in Vicinity | SCT021 SCT027 OVC033 | -1 | -6 | 69% | -7 | 76.17 | 0.0 | ||||||
| 05 | 17:55 | SW 31 G 48 | 16.09 | Overcast | SCT031 BKN039 OVC047 | 0 | -7 | 60% | -6 | 76.17 | 0.0 | ||||||
| 05 | 17:35 | SW 33 G 50 | 16.09 | Overcast and Breezy | BKN040 BKN050 OVC060 | 0 | -7 | 60% | -6 | 76.17 | 0.0 | ||||||
| 05 | 17:15 | SW 26 G 46 | 16.09 | Overcast | BKN041 OVC049 | 0 | -8 | 55% | -6 | 76.17 | 0.0 | ||||||
| 05 | 16:55 | SW 33 G 43 | 16.09 | Overcast and Breezy | SCT028 BKN041 OVC049 | 0 | -7 | 60% | -6 | 76.2 | 0.0 | ||||||
| 05 | 16:35 | SW 35 G 54 | 16.09 | Overcast and Breezy | SCT026 BKN032 OVC046 | 0 | -7 | 60% | -7 | 76.2 | 0.0 | ||||||
| 05 | 16:15 | SW 37 G 56 | 16.09 | Overcast and Breezy | SCT029 BKN033 OVC047 | 0 | -7 | 60% | -7 | 76.2 | 0.0 | ||||||
| 05 | 15:55 | SW 31 G 50 | 16.09 | Overcast | SCT012 BKN031 OVC047 | 0 | -6 | 64% | -6 | 76.25 | 0.0 | ||||||
| 05 | 15:35 | SW 24 G 48 | 2.82 | Overcast | BKN014 BKN021 OVC026 | -1 | -6 | 69% | -7 | 76.28 | 0.0 | ||||||
| 05 | 15:15 | SW 37 G 61 | 6.44 | Overcast and Breezy | SCT016 SCT024 OVC032 | 0 | -7 | 60% | -7 | 76.25 | 0.0 | ||||||
| 05 | 14:55 | SW 43 G 61 | 11.27 | Overcast and Windy | SCT019 SCT024 OVC032 | 0 | -7 | 60% | -7 | 76.25 | 0.0 | ||||||
| 05 | 14:35 | SW 33 G 48 | 16.09 | Overcast and Breezy | BKN032 OVC040 | 0 | -7 | 60% | -6 | 76.3 | 0.0 | ||||||
| 05 | 14:15 | SW 41 G 61 | 16.09 | Mostly Cloudy and Breezy | SCT036 BKN042 BKN049 | 0 | -7 | 60% | -7 | 76.3 | 0.0 | ||||||
| 05 | 13:55 | SW 39 G 61 | 16.09 | Partly Cloudy and Breezy | SCT036 | 1 | -7 | 56% | -6 | 76.28 | 0.0 | ||||||
| 05 | 13:35 | SW 33 G 57 | 16.09 | Partly Cloudy and Breezy | SCT036 | 0 | -7 | 60% | -6 | 76.3 | 0.0 | ||||||
| 05 | 13:15 | SW 37 G 59 | 16.09 | Partly Cloudy and Breezy | SCT060 SCT075 | 0 | -7 | 60% | -7 | 76.3 | 0.0 | ||||||
| 05 | 12:55 | SW 37 G 59 | 16.09 | Overcast and Breezy | SCT050 BKN075 OVC085 | 0 | -7 | 60% | -7 | 76.3 | 0.0 | ||||||
| 05 | 12:35 | SW 48 G 61 | 16.09 | Mostly Cloudy and Windy | BKN075 | 0 | -8 | 55% | -8 | 76.3 | 0.0 | ||||||
| 05 | 12:15 | SW 37 G 50 | 16.09 | Mostly Cloudy and Breezy | BKN075 BKN090 | 0 | -8 | 55% | -7 | 76.3 | 0.0 | ||||||
| 05 | 11:55 | SW 33 G 50 | 16.09 | Overcast and Breezy | SCT047 BKN065 OVC090 | -1 | -7 | 64% | -8 | 76.3 | 0.0 | ||||||
| 05 | 11:35 | SW 44 G 61 | 16.09 | Overcast and Windy | BKN075 OVC100 | -2 | -7 | 69% | -10 | 76.3 | 0.0 | ||||||
| 05 | 11:15 | SW 37 G 57 | 16.09 | Partly Cloudy and Breezy | SCT065 SCT085 SCT100 | -1 | -7 | 64% | -8 | 76.3 | 0.0 | ||||||
| 05 | 10:55 | SW 33 G 48 | 16.09 | Mostly Cloudy and Breezy | SCT065 BKN095 | -1 | -7 | 64% | -8 | 76.3 | 0.0 | ||||||
| 05 | 10:35 | SW 35 G 46 | 16.09 | Mostly Cloudy and Breezy | SCT065 SCT070 BKN100 | -2 | -8 | 64% | -9 | 76.35 | 0.0 | ||||||
| 05 | 10:15 | SW 28 G 41 | 16.09 | Overcast | SCT065 BKN075 OVC095 | -1 | -8 | 59% | -7 | 76.35 | 0.0 | ||||||
| 05 | 09:55 | SW 20 G 35 | 16.09 | Overcast | OVC065 | -3 | -8 | 69% | -9 | 76.38 | 0.0 | ||||||
| 05 | 09:35 | SW 22 G 28 | 16.09 | Overcast | SCT055 OVC070 | -3 | -8 | 69% | -9 | 76.38 | 0.0 | ||||||
| 05 | 09:15 | SW 20 | 16.09 | Overcast | SCT055 OVC070 | -3 | -8 | 69% | -9 | 76.38 | 0.0 | ||||||
| 05 | 08:55 | SW 17 | 16.09 | Overcast | OVC055 | -4 | -8 | 74% | -9 | 76.43 | 0.0 | ||||||
| 05 | 08:35 | SW 22 G 28 | 16.09 | Overcast | SCT055 BKN075 OVC100 | -4 | -8 | 74% | -10 | 76.43 | 0.0 | ||||||
| 05 | 08:15 | SW 22 G 28 | 16.09 | Overcast | SCT100 OVC120 | -3 | -9 | 64% | -9 | 76.43 | 0.0 | ||||||
| 05 | 07:55 | SW 19 | 16.09 | Partly Cloudy | SCT085 SCT120 | -4 | -9 | 69% | -10 | 76.45 | 0.0 | ||||||
| 05 | 07:35 | SW 15 | 16.09 | Fair | CLR | -5 | -10 | 68% | -10 | 76.45 | 0.0 | ||||||
| 05 | 07:15 | SW 20 G 31 | 16.09 | Fair | CLR | -4 | -10 | 63% | -10 | 76.43 | 0.0 | ||||||
| 05 | 06:55 | SW 22 G 30 | 16.09 | Fair | CLR | -5 | -10 | 68% | -11 | 76.43 | 0.0 | ||||||
| 05 | 06:35 | SW 24 G 41 | 16.09 | Fair | CLR | -5 | -10 | 68% | -12 | 76.43 | 0.0 | ||||||
| 05 | 06:15 | SW 24 G 31 | 16.09 | Fair | CLR | -4 | -10 | 63% | -10 | 76.43 | 0.0 | ||||||
| 05 | 05:55 | SW 20 | 16.09 | Fair | CLR | -4 | -10 | 63% | -10 | 76.43 | 0.0 | ||||||
| 05 | 05:35 | SW 19 | 16.09 | Fair | CLR | -4 | -10 | 63% | -10 | 76.43 | 0.0 | ||||||
| 05 | 05:15 | SW 24 G 43 | 16.09 | Fair | CLR | -4 | -10 | 63% | -10 | 76.43 | 0.0 | ||||||
| 05 | 04:55 | SW 30 G 39 | 16.09 | Fair | CLR | -4 | -10 | 63% | -11 | 76.43 | 0.0 | ||||||
| 05 | 04:35 | SW 28 G 43 | 16.09 | Fair | CLR | -3 | -10 | 59% | -10 | 76.43 | 0.0 | ||||||
| 05 | 04:15 | SW 22 G 35 | 16.09 | Fair | CLR | -3 | -10 | 59% | -9 | 76.43 | 0.0 | ||||||
| 05 | 03:55 | SW 22 G 39 | 16.09 | Fair | CLR | -3 | -10 | 59% | -9 | 76.43 | 0.0 | ||||||
| 05 | 03:35 | SW 24 G 37 | 16.09 | Fair | CLR | -3 | -10 | 59% | -9 | 76.43 | 0.0 | ||||||
| 05 | 03:15 | SW 30 G 48 | 16.09 | Fair | CLR | -3 | -11 | 54% | -10 | 76.43 | 0.0 | ||||||
| 05 | 02:55 | SW 28 G 41 | 16.09 | Fair | CLR | -2 | -10 | 55% | -8 | 76.45 | 0.0 | ||||||
| 05 | 02:35 | SW 28 G 44 | 16.09 | Fair | CLR | -2 | -10 | 55% | -8 | 76.48 | 0.0 | ||||||
| 05 | 02:15 | SW 24 G 35 | 16.09 | Fair | CLR | -2 | -9 | 59% | -8 | 76.48 | 0.0 | ||||||
| 05 | 01:55 | SW 30 G 44 | 16.09 | Fair | CLR | -1 | -8 | 59% | -7 | 76.48 | 0.0 | ||||||
| 05 | 01:35 | SW 30 G 50 | 16.09 | Fair | CLR | -1 | -8 | 59% | -7 | 76.48 | 0.0 | ||||||
| 05 | 01:15 | SW 30 G 48 | 16.09 | Fair | CLR | 0 | -8 | 55% | -6 | 76.5 | 0.0 | ||||||
| 05 | 00:55 | SW 37 G 56 | 16.09 | Fair and Breezy | CLR | 0 | -8 | 55% | -7 | 76.5 | 0.0 | ||||||
| 05 | 00:35 | SW 26 G 50 | 16.09 | Fair | CLR | 0 | -8 | 55% | -6 | 76.53 | 0.0 | ||||||
| 05 | 00:15 | SW 31 G 48 | 16.09 | Fair | CLR | 0 | -8 | 55% | -6 | 76.53 | 0.0 | ||||||
| 04 | 23:55 | SW 26 G 44 | 16.09 | Fair | CLR | 0 | -8 | 55% | -6 | 76.56 | 0.0 | ||||||
| 04 | 23:35 | SW 22 G 35 | 16.09 | Fair | CLR | 0 | -8 | 55% | -5 | 76.56 | 0.0 | ||||||
| 04 | 23:15 | W 20 G 46 | 16.09 | Fair | CLR | 0 | -8 | 55% | -5 | 76.56 | 0.0 | ||||||
| 04 | 22:55 | W 28 G 44 | 16.09 | Fair | CLR | 0 | -8 | 55% | -6 | 76.56 | 0.0 | ||||||
| 04 | 22:35 | SW 31 G 44 | 16.09 | Fair | CLR | 0 | -8 | 55% | -6 | 76.61 | 0.0 | ||||||
| 04 | 22:15 | SW 31 G 46 | 16.09 | Fair | CLR | 0 | -9 | 51% | -6 | 76.61 | 0.0 | ||||||
| 04 | 21:55 | SW 26 G 43 | 16.09 | Fair | CLR | 0 | -8 | 55% | -6 | 76.61 | 0.0 | ||||||
| 04 | 21:35 | W 24 G 41 | 16.09 | Fair | CLR | 0 | -8 | 55% | -5 | 76.61 | 0.0 | ||||||
| 04 | 21:15 | W 31 G 50 | 16.09 | Fair | CLR | 0 | -8 | 55% | -6 | 76.58 | 0.0 | ||||||
| 04 | 20:55 | SW 28 G 43 | 16.09 | Fair | CLR | 0 | -8 | 55% | -6 | 76.58 | 0.0 | ||||||
| 04 | 20:35 | W 33 G 48 | 16.09 | Fair and Breezy | CLR | 0 | -8 | 55% | -6 | 76.58 | 0.0 | ||||||
| 04 | 20:15 | W 28 G 48 | 16.09 | Fair | CLR | 0 | -8 | 55% | -6 | 76.58 | 0.0 | ||||||
| 04 | 19:55 | SW 37 G 52 | 16.09 | Fair and Breezy | CLR | 0 | -9 | 51% | -7 | 76.56 | 0.0 | ||||||
| 04 | 19:35 | SW 44 G 57 | 16.09 | Fair and Windy | CLR | 0 | -10 | 47% | -7 | 76.56 | 0.0 | ||||||
| 04 | 19:15 | SW 43 G 57 | 16.09 | Fair and Windy | CLR | 1 | -10 | 44% | -6 | 76.53 | 0.0 | ||||||
| 04 | 18:55 | SW 37 G 61 | 16.09 | Partly Cloudy and Breezy | SCT050 | 1 | -8 | 51% | -5 | 76.58 | 0.0 | ||||||
| 04 | 18:35 | SW 35 G 59 | 16.09 | Partly Cloudy and Breezy | SCT044 SCT050 SCT055 | 1 | -7 | 56% | -5 | 76.58 | 0.0 | ||||||
| 04 | 18:15 | SW 37 G 57 | 16.09 | Mostly Cloudy and Breezy | SCT044 BKN050 BKN060 | 1 | -7 | 56% | -5 | 76.58 | 0.0 | ||||||
| 04 | 17:55 | SW 39 G 54 | 16.09 | Mostly Cloudy and Breezy | SCT045 BKN050 BKN060 | 1 | -7 | 56% | -6 | 76.61 | 0.0 | ||||||
| 04 | 17:35 | SW 31 G 61 | 16.09 | Mostly Cloudy | SCT043 BKN050 | 2 | -6 | 56% | -4 | 76.61 | 0.0 | ||||||
| 04 | 17:15 | SW 31 G 50 | 16.09 | Mostly Cloudy | SCT045 SCT050 BKN060 | 1 | -6 | 60% | -5 | 76.61 | 0.0 | ||||||
| 04 | 16:55 | SW 33 G 57 | 16.09 | Mostly Cloudy and Breezy | SCT038 SCT044 BKN055 | 2 | -5 | 60% | -4 | 76.58 | 0.0 | ||||||
| 04 | 16:35 | SW 39 G 52 | 16.09 | Mostly Cloudy and Breezy | SCT038 BKN044 BKN049 | 2 | -5 | 60% | -4 | 76.58 | 0.0 | ||||||
| 04 | 16:15 | SW 28 G 57 | 16.09 | Mostly Cloudy | SCT035 BKN041 BKN048 | 2 | -5 | 60% | -3 | 76.58 | 0.0 | ||||||
| 04 | 15:55 | SW 30 G 52 | 16.09 | Overcast | BKN035 BKN040 OVC060 | 2 | -5 | 60% | -3 | 76.63 | 0.0 | ||||||
| 04 | 15:35 | SW 24 G 44 | 16.09 | Mostly Cloudy | BKN030 BKN038 BKN047 | 2 | -4 | 65% | -3 | 76.66 | 0.0 | ||||||
| 04 | 15:15 | SW 28 G 48 | 16.09 | Overcast | SCT027 BKN038 OVC047 | 1 | -4 | 70% | -5 | 76.66 | 0.0 | ||||||
| 04 | 14:35 | SW 37 G 52 | 16.09 | Overcast and Breezy | SCT017 BKN023 OVC033 | 1 | -3 | 75% | -5 | 76.66 | 0.0 | ||||||
| 04 | 14:15 | SW 33 G 48 | 16.09 | Overcast and Breezy | SCT016 BKN023 OVC046 | 1 | -2 | 81% | -5 | 76.68 | 0.0 | ||||||
| 04 | 13:35 | SW 37 G 56 | 16.09 | Overcast and Breezy | BKN016 BKN023 OVC045 | 1 | -1 | 87% | -5 | 76.71 | 0.0 | ||||||
| 04 | 13:15 | SW 33 G 43 | 16.09 | Overcast and Breezy | SCT015 BKN023 OVC050 | 1 | -2 | 81% | -5 | 76.71 | 0.0 | ||||||
| 04 | 12:55 | SW 33 G 43 | 16.09 | Mostly Cloudy and Breezy | SCT018 SCT025 BKN038 | 1 | -2 | 81% | -5 | 76.73 | 0.0 | ||||||
| 04 | 12:35 | SW 30 G 44 | 16.09 | Mostly Cloudy | BKN018 BKN024 BKN031 | 2 | -2 | 75% | -3 | 76.73 | 0.0 | ||||||
| 04 | 12:15 | SW 28 G 41 | 16.09 | Mostly Cloudy | SCT016 BKN027 BKN040 | 1 | -2 | 81% | -5 | 76.76 | 0.0 | ||||||
| 04 | 11:55 | SW 28 G 39 | 16.09 | Mostly Cloudy | SCT014 BKN025 BKN039 | 1 | -2 | 81% | -5 | 76.76 | 0.0 | ||||||
| 04 | 11:35 | SW 24 G 41 | 16.09 | Mostly Cloudy | BKN012 BKN047 | 1 | -2 | 81% | -4 | 76.76 | 0.0 | ||||||
| 04 | 11:15 | SW 28 G 35 | 16.09 | Thunderstorm in Vicinity | BKN012 BKN020 | 1 | -2 | 81% | -5 | 76.78 | 0.0 | ||||||
| 04 | 10:55 | SW 26 G 41 | 16.09 | Mostly Cloudy | SCT012 BKN018 BKN033 | 0 | -2 | 87% | -6 | 76.78 | 0.0 | ||||||
| 04 | 10:35 | SW 19 G 33 | 16.09 | Mostly Cloudy | BKN010 BKN018 | 0 | -2 | 87% | -5 | 76.81 | 0.0 | ||||||
| 04 | 10:15 | SW 20 G 33 | 16.09 | Overcast | OVC010 | 0 | -1 | 93% | -5 | 76.81 | 0.0 | ||||||
| 04 | 09:55 | SW 19 G 31 | 16.09 | Overcast | BKN008 OVC030 | 0 | -2 | 87% | -5 | 76.81 | 0.0 | ||||||
| 04 | 09:35 | SW 17 | 16.09 | Mostly Cloudy | BKN008 BKN030 BKN041 | 0 | -1 | 93% | -4 | 76.81 | 0.0 | ||||||
| 04 | 09:15 | SW 19 G 26 | 16.09 | Mostly Cloudy | SCT008 SCT030 BKN047 | -1 | -1 | 100% | -6 | 76.84 | 0.0 | ||||||
| 04 | 08:55 | SW 17 | 16.09 | Partly Cloudy | SCT008 SCT043 | -1 | -1 | 100% | -6 | 76.84 | 0.0 | ||||||
| 04 | 08:35 | SW 11 | 16.09 | Fair | CLR | -1 | -1 | 100% | -4 | 76.84 | 0.0 | ||||||
| 04 | 08:15 | SW 13 | 16.09 | Fair | CLR | -1 | -1 | 100% | -5 | 76.84 | 0.0 | ||||||
| 04 | 07:55 | SW 11 | 16.09 | Fair | CLR | -2 | -2 | 100% | -6 | 76.81 | 0.0 | ||||||
| 04 | 07:35 | SW 11 | 16.09 | Fair | CLR | -2 | -2 | 100% | -6 | 76.81 | 0.0 | ||||||
| 04 | 07:15 | SW 15 | 16.09 | Fair | CLR | -2 | -2 | 100% | -6 | 76.81 | 0.0 | ||||||
| 04 | 06:55 | SW 17 | 16.09 | Fair | CLR | -2 | -2 | 100% | -7 | 76.78 | 0.0 | ||||||
| 04 | 06:35 | SW 19 | 4.83 | Partly Cloudy | SCT020 SCT025 | -2 | -2 | 100% | -7 | 76.76 | 0.0 | ||||||
| 04 | 06:15 | SW 17 | 16.09 | Partly Cloudy | SCT001 SCT020 SCT025 | -2 | -2 | 100% | -7 | 76.76 | 0.0 | ||||||
| 04 | 05:55 | SW 17 | 0.40 | Overcast | OVC001 | -2 | -2 | 100% | -7 | 76.76 | 0.0 | 0.03 | |||||
| 04 | 05:35 | SW 19 G 28 | 0.24 | Overcast | OVC001 | -2 | -2 | 100% | -7 | 76.73 | 0.0 | 0.03 | |||||
| 04 | 05:15 | SW 17 G 28 | 0.24 | Overcast | OVC001 | -2 | -2 | 100% | -7 | 76.76 | 0.0 | 0.03 | |||||
| 04 | 04:55 | SW 28 G 37 | 0.24 | Overcast | OVC001 | -2 | -2 | 100% | -8 | 76.76 | 0.0 | 0.03 | |||||
| 04 | 04:35 | SW 28 G 37 | 6.44 | Mostly Cloudy | SCT001 SCT009 BKN024 | -2 | -2 | 100% | -8 | 76.78 | 0.0 | ||||||
| 04 | 04:15 | SW 24 G 37 | 0.80 | Overcast | OVC001 | -2 | -2 | 100% | -8 | 76.76 | 0.0 | ||||||
| 04 | 03:55 | SW 26 | 1.21 | Overcast | OVC001 | -2 | -2 | 100% | -8 | 76.76 | 0.0 | ||||||
| 04 | 03:35 | SW 26 G 35 | 11.27 | Overcast | SCT001 BKN026 OVC042 | -2 | -2 | 100% | -8 | 76.76 | 0.0 | ||||||
| 04 | 03:15 | SW 22 G 37 | 8.05 | Overcast | SCT001 BKN014 OVC036 | -2 | -2 | 100% | -8 | 76.78 | 0.0 | ||||||
| 04 | 02:55 | SW 19 G 37 | 0.40 | Overcast | OVC001 | -2 | -2 | 100% | -7 | 76.81 | 0.0 | 0.05 | |||||
| 04 | 02:35 | SW 20 G 31 | 0.80 | Overcast | OVC003 | -2 | -2 | 100% | -7 | 76.84 | 0.0 | ||||||
| 04 | 02:15 | SW 19 G 33 | 2.01 | Overcast | SCT004 BKN010 OVC032 | -2 | -2 | 100% | -7 | 76.84 | 0.0 | ||||||
| 04 | 01:55 | SW 19 G 35 | 6.44 | Overcast | SCT004 BKN035 OVC045 | -1 | -3 | 86% | -6 | 76.89 | 0.0 | ||||||
| 04 | 01:35 | SW 22 G 37 | 11.27 | Mostly Cloudy | SCT017 BKN042 BKN050 | 0 | -5 | 69% | -5 | 76.91 | 0.0 | ||||||
| 04 | 01:15 | W 13 | 16.09 | Mostly Cloudy | SCT043 BKN050 BKN060 | 0 | -6 | 64% | -4 | 76.91 | 0.0 | ||||||
| 04 | 00:55 | W 17 G 43 | 16.09 | Overcast | SCT021 SCT031 OVC048 | 0 | -6 | 64% | -4 | 76.94 | 0.0 | ||||||
| 04 | 00:35 | SW 31 G 44 | 16.09 | Overcast | SCT022 BKN042 OVC095 | 1 | -6 | 60% | -5 | 76.91 | 0.0 | ||||||
| 04 | 00:15 | W 20 G 33 | 16.09 | Mostly Cloudy | SCT038 SCT050 BKN070 | 1 | -7 | 56% | -4 | 76.94 | 0.0 | ||||||
| 03 | 23:55 | SW 17 G 35 | 16.09 | Partly Cloudy | SCT040 SCT050 SCT120 | 0 | -7 | 60% | -4 | 76.94 | 0.0 | ||||||
| 03 | 23:35 | W 13 G 41 | 16.09 | Mostly Cloudy | SCT042 SCT050 BKN120 | 1 | -7 | 56% | -2 | 76.94 | 0.0 | ||||||
| 03 | 22:55 | W 15 | 16.09 | Fair | CLR | 1 | -8 | 51% | -3 | 76.96 | 0.0 | ||||||
| 03 | 22:35 | W 17 | 16.09 | Fair | CLR | 1 | -8 | 51% | -3 | 76.96 | 0.0 | ||||||
| 03 | 22:15 | W 17 | 16.09 | Fair | CLR | 1 | -8 | 51% | -3 | 76.96 | 0.0 | ||||||
| 03 | 21:55 | W 17 | 16.09 | Fair | CLR | 1 | -8 | 51% | -3 | 76.99 | 0.0 | ||||||
| 03 | 21:35 | W 13 | 16.09 | Fair | CLR | 1 | -8 | 51% | -2 | 76.99 | 0.0 | ||||||
| 03 | 21:15 | W 11 | 16.09 | Fair | CLR | 1 | -8 | 51% | -2 | 76.99 | 0.0 | ||||||
| 03 | 20:55 | SW 17 | 16.09 | Fair | CLR | 1 | -8 | 51% | -3 | 76.96 | 0.0 | ||||||
| 03 | 20:35 | W 13 | 16.09 | Fair | CLR | 1 | -7 | 56% | -2 | 76.96 | 0.0 | ||||||
| 03 | 20:15 | W 13 | 16.09 | Fair | CLR | 1 | -7 | 56% | -2 | 76.96 | 0.0 | ||||||
| 03 | 19:55 | SW 13 | 16.09 | Fair | CLR | 2 | -7 | 52% | -1 | 76.94 | 0.0 | ||||||
| 03 | 19:35 | W 13 G 26 | 16.09 | Partly Cloudy | SCT037 SCT070 | 2 | -7 | 52% | -1 | 76.94 | 0.0 | ||||||
| 03 | 19:15 | SW 19 G 28 | 16.09 | Partly Cloudy | SCT022 SCT029 SCT037 | 2 | -7 | 52% | -2 | 76.96 | 0.0 | ||||||
| 03 | 18:55 | SW 15 G 26 | 16.09 | Partly Cloudy | SCT060 SCT070 SCT090 | 3 | -7 | 48% | -0 | 76.96 | 0.0 | ||||||
| 03 | 18:35 | W 9 | 16.09 | Mostly Cloudy | SCT060 BKN070 | 2 | -7 | 52% | -0 | 76.99 | 0.0 | ||||||
| 03 | 18:15 | W 20 G 28 | 16.09 | Overcast | BKN050 OVC070 | 3 | -7 | 48% | -1 | 76.96 | 0.0 | ||||||
| 03 | 17:55 | SW 7 | 16.09 | Mostly Cloudy | SCT046 BKN050 BKN065 | 3 | -7 | 48% | 1 | 77.01 | 0.0 | ||||||
| 03 | 17:35 | SW 19 G 33 | 16.09 | Mostly Cloudy | SCT055 SCT065 BKN090 | 3 | -7 | 48% | -1 | 76.99 | 0.0 | ||||||
| 03 | 17:15 | SW 15 G 30 | 16.09 | Mostly Cloudy | SCT050 BKN065 BKN080 | 3 | -7 | 48% | -0 | 77.01 | 0.0 | ||||||
| 03 | 16:55 | SW 11 | 16.09 | Partly Cloudy | SCT048 SCT070 | 3 | -6 | 52% | 0 | 77.01 | 0.0 | ||||||
| 03 | 16:35 | SW 17 G 31 | 16.09 | Partly Cloudy | SCT055 SCT080 | 5 | -6 | 45% | 2 | 77.01 | 0.0 | ||||||
| 03 | 16:15 | SW 19 G 35 | 16.09 | Mostly Cloudy | SCT036 SCT055 BKN080 | 3 | -6 | 52% | -1 | 77.01 | 0.0 | ||||||
| 03 | 15:55 | SW 19 G 37 | 16.09 | Overcast | SCT075 OVC085 | 3 | -7 | 48% | -1 | 77.04 | 0.0 | ||||||
| 03 | 15:35 | SW 22 G 37 | 16.09 | Mostly Cloudy | BKN085 | 4 | -6 | 48% | -0 | 77.04 | 0.0 | ||||||
| 03 | 15:15 | SW 24 G 39 | 16.09 | Partly Cloudy | SCT085 | 4 | -7 | 45% | -0 | 77.06 | 0.0 | ||||||
| 03 | 14:55 | W 20 G 35 | 16.09 | Partly Cloudy | SCT085 | 3 | -6 | 52% | -1 | 77.09 | 0.0 | ||||||
| 03 | 14:35 | SW 19 G 33 | 16.09 | Partly Cloudy | SCT070 | 3 | -6 | 52% | -1 | 77.14 | 0.0 | ||||||
| 03 | 14:15 | W 20 G 33 | 16.09 | Partly Cloudy | SCT070 | 4 | -5 | 52% | 0 | 77.14 | 0.0 | ||||||
| 03 | 13:55 | W 22 G 37 | 16.09 | Partly Cloudy | SCT060 | 3 | -6 | 52% | -1 | 77.14 | 0.0 | ||||||
| 03 | 13:35 | W 20 G 37 | 16.09 | Partly Cloudy | SCT037 SCT060 | 3 | -5 | 56% | -1 | 77.17 | 0.0 | ||||||
| 03 | 13:15 | SW 26 G 39 | 16.09 | Fair | CLR | 3 | -6 | 52% | -2 | 77.19 | 0.0 | ||||||
| 03 | 12:55 | SW 24 G 33 | 16.09 | Fair | CLR | 3 | -6 | 52% | -2 | 77.19 | 0.0 | ||||||
| 03 | 12:35 | SW 22 G 33 | 16.09 | Fair | CLR | 2 | -5 | 60% | -3 | 77.22 | 0.0 | ||||||
| 03 | 12:15 | SW 19 G 31 | 16.09 | Fair | CLR | 2 | -6 | 56% | -2 | 77.24 | 0.0 | ||||||
| 03 | 11:35 | SW 11 G 31 | 16.09 | Fair | CLR | 2 | -6 | 56% | -1 | 77.27 | 0.0 | ||||||
| 03 | 11:15 | SW 17 G 30 | 16.09 | Partly Cloudy | SCT037 SCT045 | 1 | -7 | 56% | -3 | 77.27 | 0.0 | ||||||
| 03 | 10:55 | SW 9 | 16.09 | Partly Cloudy | SCT037 | 1 | -7 | 56% | -2 | 77.29 | 0.0 | ||||||
| 03 | 10:35 | W 11 | 16.09 | Fair | CLR | 1 | -7 | 56% | -2 | 77.27 | 0.0 | ||||||
| 03 | 10:15 | SW 13 | 16.09 | Fair | CLR | 1 | -8 | 51% | -2 | 77.27 | 0.0 | ||||||
| 03 | 09:55 | SW 11 | 16.09 | Fair | CLR | 0 | -7 | 60% | -3 | 77.27 | 0.0 | ||||||
| 03 | 09:35 | SW 13 G 28 | 16.09 | Fair | CLR | 0 | -7 | 60% | -4 | 77.27 | 0.0 | ||||||
| 03 | 09:15 | SW 19 G 31 | 16.09 | Fair | CLR | 0 | -7 | 60% | -5 | 77.27 | 0.0 | ||||||
| 03 | 08:55 | SW 15 G 26 | 16.09 | Fair | CLR | -1 | -7 | 64% | -5 | 77.27 | 0.0 | ||||||
| 03 | 08:35 | SW 17 | 16.09 | Fair | CLR | -1 | -7 | 64% | -6 | 77.27 | 0.0 | ||||||
| 03 | 08:15 | SW 15 G 26 | 16.09 | Fair | CLR | -2 | -8 | 64% | -6 | 77.27 | 0.0 | ||||||
| 03 | 07:55 | SW 15 | 16.09 | Fair | CLR | -3 | -8 | 69% | -8 | 77.27 | 0.0 | ||||||
| 03 | 07:35 | SW 15 | 16.09 | Fair | CLR | -3 | -8 | 69% | -8 | 77.27 | 0.0 | ||||||
| 03 | 07:15 | SW 15 | 16.09 | Fair | CLR | -3 | -8 | 69% | -8 | 77.27 | 0.0 | ||||||
| 03 | 06:55 | SW 19 | 16.09 | Fair | CLR | -3 | -8 | 69% | -8 | 77.27 | 0.0 | ||||||
| 03 | 06:35 | SW 13 | 16.09 | Fair | CLR | -3 | -8 | 69% | -7 | 77.27 | 0.0 | ||||||
| 03 | 06:15 | SW 13 | 16.09 | Fair | CLR | -3 | -8 | 69% | -7 | 77.27 | 0.0 | ||||||
| 03 | 05:55 | SW 13 | 16.09 | Fair | CLR | -3 | -8 | 69% | -7 | 77.27 | 0.0 | ||||||
| 03 | 05:35 | SW 11 | 16.09 | Fair | CLR | -3 | -8 | 69% | -7 | 77.27 | 0.0 | ||||||
| 03 | 05:15 | SW 11 | 16.09 | Fair | CLR | -3 | -8 | 69% | -7 | 77.27 | 0.0 | ||||||
| 03 | 04:55 | SW 13 | 16.09 | Fair | CLR | -3 | -8 | 69% | -7 | 77.27 | 0.0 | ||||||
| 03 | 04:35 | SW 15 | 16.09 | Fair | CLR | -3 | -10 | 59% | -8 | 77.27 | 0.0 | ||||||
| 03 | 04:15 | W 15 | 16.09 | Fair | CLR | -2 | -10 | 55% | -6 | 77.27 | 0.0 | ||||||
| 03 | 03:55 | W 17 | 16.09 | Fair | CLR | -3 | -10 | 59% | -8 | 77.27 | 0.0 | ||||||
| 03 | 03:35 | SW 19 | 16.09 | Fair | CLR | -3 | -10 | 59% | -8 | 77.27 | 0.0 | ||||||
| 03 | 03:15 | SW 20 | 16.09 | Fair | CLR | -2 | -11 | 51% | -7 | 77.27 | 0.0 | ||||||
| 03 | 02:55 | SW 22 | 16.09 | Fair | CLR | -2 | -11 | 51% | -8 | 77.27 | 0.0 | ||||||
| 03 | 02:35 | SW 20 G 31 | 16.09 | Fair | CLR | -2 | -11 | 51% | -7 | 77.27 | 0.0 | ||||||
| 03 | 02:15 | SW 20 | 16.09 | Fair | CLR | -2 | -11 | 51% | -7 | 77.32 | 0.0 | ||||||
| 03 | 01:55 | W 17 G 28 | 16.09 | Fair | CLR | -1 | -11 | 47% | -6 | 77.32 | 0.0 | ||||||
| 03 | 01:35 | W 19 | 16.09 | Fair | CLR | 0 | -12 | 40% | -5 | 77.32 | 0.0 | ||||||
| 03 | 01:15 | W 20 G 28 | 16.09 | Fair | CLR | -1 | -12 | 43% | -6 | 77.32 | 0.0 | ||||||
| 03 | 00:55 | SW 19 | 16.09 | Fair | CLR | 0 | -12 | 40% | -5 | 77.32 | 0.0 | ||||||
| 03 | 00:35 | W 19 G 30 | 16.09 | Fair | CLR | 0 | -12 | 40% | -5 | 77.32 | 0.0 | ||||||
| 03 | 00:15 | SW 19 | 16.09 | Fair | CLR | 0 | -12 | 40% | -5 | 77.32 | 0.0 | ||||||
| 02 | 23:55 | SW 19 | 16.09 | Fair | CLR | 0 | -11 | 44% | -5 | 77.32 | 0.0 | ||||||
| 02 | 23:35 | SW 19 | 16.09 | Fair | CLR | 0 | -11 | 44% | -5 | 77.32 | 0.0 | ||||||
| 02 | 23:15 | SW 20 | 16.09 | Fair | CLR | 0 | -11 | 44% | -5 | 77.32 | 0.0 | ||||||
| 02 | 22:55 | W 20 G 28 | 16.09 | Fair | CLR | 0 | -11 | 44% | -5 | 77.32 | 0.0 | ||||||
| 02 | 22:35 | SW 17 | 16.09 | Fair | CLR | 0 | -11 | 44% | -4 | 77.32 | 0.0 | ||||||
| 02 | 22:15 | SW 17 | 16.09 | Fair | CLR | 0 | -11 | 44% | -4 | 77.32 | 0.0 | ||||||
| 02 | 21:55 | SW 15 | 16.09 | Fair | CLR | 0 | -11 | 44% | -4 | 77.32 | 0.0 | ||||||
| 02 | 21:35 | SW 17 | 16.09 | Fair | CLR | 0 | -11 | 44% | -4 | 77.32 | 0.0 | ||||||
| 02 | 21:15 | SW 13 | 16.09 | Fair | CLR | 0 | -11 | 44% | -4 | 77.32 | 0.0 | ||||||
| 02 | 20:55 | SW 15 | 16.09 | Fair | CLR | 0 | -11 | 44% | -4 | 77.29 | 0.0 | ||||||
| 02 | 20:35 | SW 13 | 16.09 | Fair | CLR | 0 | -11 | 44% | -4 | 77.27 | 0.0 | ||||||
| 02 | 20:15 | W 17 | 16.09 | Partly Cloudy | SCT065 | 0 | -11 | 44% | -4 | 77.27 | 0.0 | ||||||
| 02 | 19:55 | W 13 | 16.09 | Partly Cloudy | SCT070 | 1 | -10 | 44% | -2 | 77.27 | 0.0 | ||||||
| 02 | 19:35 | SW 11 G 26 | 16.09 | Partly Cloudy | SCT075 SCT080 | 2 | -10 | 41% | -1 | 77.27 | 0.0 | ||||||
| 02 | 19:15 | W 15 | 16.09 | Partly Cloudy | SCT075 | 2 | -10 | 41% | -2 | 77.24 | 0.0 | ||||||
| 02 | 18:55 | SW 13 | 16.09 | Partly Cloudy | SCT075 | 3 | -10 | 38% | 0 | 77.24 | 0.0 | ||||||
| Date | Time (mdt) | Wind (kph) | Vis. (km) | Weather | Sky Cond. | Air | Dwpt | Max. | Min. | Relative Humidity | Wind Chill (°C) | Heat Index (°C) | altimeter (cm) | sea level (mb) | 1 hr | 3 hr | 6 hr |
| 6 hour | |||||||||||||||||
| Temperature (ºC) | Pressure | Precipitation (cm) | |||||||||||||||